Location: Newark
(58.8333°N, 23.5833°E)
Time: 05:45:59
(UTC+00:00)

Vanguard 2 - Pass Details

Date: 26 November 2019
Orbit: 553 x 2938 km, 32.9° (Epoch: 08 December)

Event Time Altitude Azimuth Distance (km) Brightness Sun altitude
Rises 04:06:00 0° 209° (SSW) 6,446 12.0 -18.6°
Reaches altitude 10° 04:14:12 10° 186° (S) 4,947 11.7 -17.6°
Maximum altitude 04:18:54 12° 166° (SSE) 4,375 11.7 -17.0°
Drops below altitude 10° 04:23:01 10° 145° (SE) 4,218 12.0 -16.5°
Sets 04:28:35 0° 119° (ESE) 4,653 13.1 -15.8°
